Location: Penum?ka
(16.4840°N, 80.5772°E)
Time: 14:53:44
(UTC+00:00)

CRYOSAT 2 - Pass Details

Date: 19 May 2025
Orbit: 717 x 722 km, 92.0° (Epoch: 17 June)

Event Time Altitude Azimuth Distance (km) Brightness Sun altitude
Exits shadow 14:51:46 69° 162° (SSE) 769 4.2 -24.4°
Maximum altitude 14:52:22 86° 84° (E) 726 4.2 -24.5°
Drops below altitude 10° 14:57:15 10° 356° (N) 2,205 7.3 -25.5°
Sets 14:59:32 0° 356° (N) 3,126 8.2 -25.9°
